Weather History for KPKD - June, 2013

Change the Weather History Date:

Friday, June 21, 2013

  Actual Average Record
Temperature  
Mean Temperature 70 °F -  
Max Temperature 79 °F - - ()
Min Temperature 61 °F - - ()
Cooling Degree Days 4    
Growing Degree Days 20 (Base 50)    
Moisture  
Dew Point 61 °F    
Average Humidity 78    
Maximum Humidity 97    
Minimum Humidity 54    
Precipitation  
Precipitation 0.89 in - - ()
Sea Level Pressure  
Sea Level Pressure 29.93 in    
Wind  
Wind Speed 8 mph (East)    
Max Wind Speed 21 mph    
Max Gust Speed 29 mph    
Visibility 9 miles    
Events Rain    
T = Trace of Precipitation, MM = Missing Value Source: NWS Daily Summary

Daily Weather History Graph

Daily Weather History Graph

Search for Another Location

Airport or City:

Trip Planner

Search our weather history database for the weather conditions in past years. The results will help you decide how hot, cold, wet, or windy it might be!

Date:

Astronomy

Jun. 21, 2013 Rise Set
Actual Time 5:25 AM CDT 9:18 PM CDT
Civil Twilight 4:45 AM CDT 9:58 PM CDT
Nautical Twilight 3:51 AM CDT 10:52 PM CDT
Astronomical Twilight 2:30 AM CDT 12:14 AM CDT
Moon 7:25 PM CDT (6/21) 3:47 AM CDT (6/21)
Length of Visible Light 17h 12m
Length of Day
15h 52m
Waxing Gibbous, 95% of the Moon is Illuminated
Jun 21
Waxing Gibbous
Jun 23
Full
Jun 29
Last Quarter
Jul 8
New
Jul 15
First Quarter

Hourly Weather History & Observations

Time (CDT) Temp. Dew Point Humidity Pressure Visibility Wind Dir Wind Speed Gust Speed Precip Events Conditions
12:11 AM 62.6 °F 60.8 °F 94% 29.96 in 2.5 mi North 11.5 mph 28.8 mph 0.20 in Rain Heavy Rain
12:23 AM 64.4 °F 60.8 °F 88% 30.01 in 4.0 mi ESE 5.8 mph 16.1 mph 0.26 in Rain Rain
12:53 AM 63.0 °F 62.1 °F 97% 29.97 in 3.0 mi ENE 3.5 mph - 0.44 in Rain Heavy Rain
1:53 AM 63.0 °F 61.0 °F 93% 30.03 in 4.0 mi North 6.9 mph - 0.17 in Rain Rain
2:53 AM 63.0 °F 60.1 °F 90% 29.90 in 5.0 mi East 20.7 mph 26.5 mph 0.25 in Rain Rain
3:53 AM 63.0 °F 57.9 °F 84% 29.84 in 10.0 mi ESE 8.1 mph - 0.02 in   Clear
4:53 AM 62.1 °F 57.0 °F 84% 29.80 in 10.0 mi Calm Calm - N/A   Clear
5:53 AM 61.0 °F 57.0 °F 87% 29.88 in 10.0 mi NW 15.0 mph 23.0 mph N/A   Clear
6:53 AM 62.1 °F 59.0 °F 90% 29.88 in 10.0 mi NNW 6.9 mph - N/A   Clear
7:53 AM 64.0 °F 60.1 °F 87% 29.88 in 10.0 mi NNW 6.9 mph - N/A   Clear
8:53 AM 68.0 °F 60.1 °F 76% 29.89 in 10.0 mi North 8.1 mph - N/A   Clear
9:53 AM 70.0 °F 60.1 °F 71% 29.92 in 10.0 mi ENE 5.8 mph - N/A   Clear
10:53 AM 73.0 °F 60.1 °F 64% 29.94 in 10.0 mi East 5.8 mph - N/A   Clear
11:53 AM 73.9 °F 60.1 °F 62% 29.94 in 10.0 mi East 5.8 mph - N/A   Clear
12:53 PM 75.9 °F 60.1 °F 58% 29.92 in 10.0 mi East 8.1 mph - N/A   Partly Cloudy
1:53 PM 75.9 °F 61.0 °F 60% 29.93 in 10.0 mi SSE 4.6 mph - N/A   Partly Cloudy
2:53 PM 78.1 °F 60.1 °F 54% 29.94 in 10.0 mi Calm Calm - N/A   Partly Cloudy
3:53 PM 78.1 °F 61.0 °F 56% 29.94 in 10.0 mi ESE 4.6 mph - N/A   Partly Cloudy
4:53 PM 77.0 °F 61.0 °F 58% 29.97 in 10.0 mi East 5.8 mph - N/A   Clear
5:53 PM 75.0 °F 63.0 °F 66% 29.98 in 10.0 mi ESE 3.5 mph - N/A   Clear
6:53 PM 73.0 °F 64.0 °F 73% 29.99 in 10.0 mi East 4.6 mph - N/A   Clear
7:53 PM 71.1 °F 64.9 °F 81% 30.01 in 10.0 mi SSE 6.9 mph - 0.00 in Rain Light Rain
8:53 PM 69.1 °F 64.0 °F 84% 29.98 in 10.0 mi SSE 4.6 mph - 0.00 in Rain Light Rain
9:53 PM 68.0 °F 64.0 °F 87% 29.84 in 10.0 mi NE 10.4 mph - 0.01 in   Scattered Clouds
10:53 PM 66.9 °F 64.0 °F 90% 29.91 in 10.0 mi SE 5.8 mph - N/A   Clear
11:53 PM 66.9 °F 64.0 °F 90% 29.91 in 10.0 mi East 6.9 mph - N/A   Clear